When you browse on this site, cookies collect data to enhance your experience and personalize the content and advertising you see.
Visit our Privacy Policy to learn more. By continuing to use the site, you agree to this use of cookies and data.
  • In Austria
  • List of Countries
  • For 7 days
  • Water Temperature
  • Weather Map
  • News
  • Weather Widgets
  • user-avatar
    Login

    Hourly Weather Luzhki

    Today, 21 November, Thursday

    Time Temperature Precipitation Wind Pressure Humidity
    00:00 -23°C° 0 mm 3 mps 761 mmHg 91%
    01:00 -23°C° 0 mm 3 mps 761 mmHg 92%
    02:00 -23°C° 0 mm 3 mps 762 mmHg 92%
    03:00 -23°C° 0 mm 3 mps 762 mmHg 92%
    04:00 -24°C° 0 mm 3 mps 762 mmHg 90%
    05:00 -24°C° 0 mm 3 mps 762 mmHg 90%
    06:00 -24°C° 0 mm 3 mps 762 mmHg 91%
    07:00 -23°C° 0 mm 2 mps 762 mmHg 91%
    08:00 -21°C° 0 mm 2 mps 762 mmHg 88%
    09:00 -20°C° 0 mm 2 mps 762 mmHg 86%
    10:00 -19°C° 0 mm 2 mps 762 mmHg 83%
    11:00 -19°C° 0 mm 2 mps 762 mmHg 81%
    12:00 -16°C° 0 mm 1 mps 762 mmHg 79%
    13:00 -15°C° 0 mm 1 mps 761 mmHg 77%
    14:00 -15°C° 0 mm 1 mps 761 mmHg 79%
    15:00 -16°C° 0 mm 1 mps 761 mmHg 82%
    16:00 -16°C° 0 mm 1 mps 761 mmHg 85%
    17:00 -16°C° 0 mm 1 mps 760 mmHg 84%
    18:00 -16°C° 0 mm 1 mps 760 mmHg 84%
    19:00 -16°C° 0 mm 1 mps 760 mmHg 84%
    20:00 -15°C° 0 mm 1 mps 760 mmHg 84%
    21:00 -15°C° 0 mm 1 mps 760 mmHg 85%
    22:00 -15°C° 0 mm 1 mps 760 mmHg 85%
    23:00 -15°C° 0 mm 1 mps 759 mmHg 85%

    Tomorrow, 22 November, Friday

    Time Temperature Precipitation Wind Pressure Humidity
    00:00 -16°C° 0 mm 2 mps 759 mmHg 85%
    01:00 -16°C° 0 mm 2 mps 758 mmHg 86%
    02:00 -16°C° 0 mm 2 mps 758 mmHg 85%
    03:00 -16°C° 0 mm 2 mps 758 mmHg 84%
    04:00 -16°C° 0 mm 2 mps 758 mmHg 84%
    05:00 -16°C° 0 mm 2 mps 757 mmHg 83%
    06:00 -16°C° 0 mm 2 mps 757 mmHg 83%
    07:00 -16°C° 0 mm 2 mps 757 mmHg 82%
    08:00 -15°C° 0 mm 2 mps 757 mmHg 81%
    09:00 -14°C° 0 mm 2 mps 757 mmHg 79%
    10:00 -13°C° 0 mm 2 mps 757 mmHg 77%
    11:00 -12°C° 0 mm 2 mps 757 mmHg 75%
    12:00 -9°C° 0 mm 1 mps 757 mmHg 72%
    13:00 -9°C° 0 mm 1 mps 756 mmHg 69%
    14:00 -9°C° 0 mm 1 mps 756 mmHg 72%
    15:00 -10°C° 0 mm 1 mps 756 mmHg 75%
    16:00 -11°C° 0 mm 1 mps 756 mmHg 78%
    17:00 -11°C° 0 mm 1 mps 756 mmHg 78%
    18:00 -11°C° 0 mm 1 mps 756 mmHg 79%
    19:00 -12°C° 0 mm 0 mps 755 mmHg 79%
    20:00 -12°C° 0 mm 0 mps 755 mmHg 79%
    21:00 -12°C° 0 mm 0 mps 756 mmHg 78%
    22:00 -12°C° 0 mm 0 mps 756 mmHg 78%
    23:00 -12°C° 0 mm 0 mps 756 mmHg 77%

    Day after tomorrow, 23 November, Saturday

    Time Temperature Precipitation Wind Pressure Humidity
    00:00 -12°C° 0 mm 0 mps 756 mmHg 77%
    01:00 -12°C° 0 mm 0 mps 755 mmHg 77%
    02:00 -12°C° 0 mm 0 mps 755 mmHg 77%
    03:00 -12°C° 0 mm 0 mps 755 mmHg 77%
    04:00 -12°C° 0 mm 1 mps 755 mmHg 76%
    05:00 -12°C° 0 mm 0 mps 755 mmHg 77%
    06:00 -12°C° 0 mm 0 mps 755 mmHg 78%
    07:00 -12°C° 0 mm 0 mps 755 mmHg 78%
    08:00 -11°C° 0 mm 0 mps 755 mmHg 77%
    09:00 -10°C° 0 mm 0 mps 755 mmHg 76%
    10:00 -9°C° 0 mm 0 mps 755 mmHg 75%
    11:00 -9°C° 0 mm 1 mps 754 mmHg 75%
    12:00 -8°C° 0 mm 1 mps 754 mmHg 75%
    13:00 -8°C° 0 mm 1 mps 754 mmHg 75%
    14:00 -8°C° 0 mm 1 mps 753 mmHg 78%
    15:00 -9°C° 0 mm 1 mps 753 mmHg 80%
    16:00 -10°C° 0 mm 2 mps 753 mmHg 83%
    17:00 -10°C° 0 mm 2 mps 753 mmHg 83%
    18:00 -10°C° 0 mm 2 mps 752 mmHg 84%
    19:00 -12°C° 0 mm 3 mps 752 mmHg 84%
    20:00 -13°C° 0 mm 3 mps 752 mmHg 86%
    21:00 -13°C° 0 mm 3 mps 752 mmHg 88%
    22:00 -13°C° 0 mm 3 mps 751 mmHg 90%
    23:00 -13°C° 0 mm 3 mps 751 mmHg 90%

    24 November, Sunday

    Time Temperature Precipitation Wind Pressure Humidity
    00:00 -13°C° 0 mm 3 mps 751 mmHg 91%
    01:00 -12°C° 0 mm 3 mps 751 mmHg 92%
    02:00 -13°C° 0 mm 3 mps 751 mmHg 92%
    03:00 -13°C° 0 mm 3 mps 751 mmHg 92%
    04:00 -13°C° 0 mm 3 mps 750 mmHg 92%
    05:00 -13°C° 0 mm 3 mps 750 mmHg 91%
    06:00 -12°C° 0 mm 2 mps 750 mmHg 91%
    07:00 -12°C° 0 mm 2 mps 750 mmHg 90%
    08:00 -12°C° 0 mm 2 mps 750 mmHg 89%
    09:00 -10°C° 0 mm 2 mps 751 mmHg 88%
    10:00 -8°C° 0 mm 1 mps 751 mmHg 87%
    11:00 -8°C° 0 mm 1 mps 751 mmHg 85%
    12:00 -7°C° 0 mm 1 mps 750 mmHg 84%
    13:00 -6°C° 0 mm 1 mps 750 mmHg 82%
    14:00 -7°C° 0 mm 1 mps 750 mmHg 83%
    15:00 -7°C° 0 mm 1 mps 750 mmHg 84%
    16:00 -7°C° 0 mm 1 mps 750 mmHg 86%
    17:00 -8°C° 0 mm 1 mps 751 mmHg 86%
    18:00 -8°C° 0 mm 1 mps 751 mmHg 86%
    19:00 -9°C° 0 mm 1 mps 751 mmHg 86%
    20:00 -9°C° 0 mm 1 mps 751 mmHg 86%
    21:00 -9°C° 0 mm 1 mps 751 mmHg 86%
    22:00 -9°C° 0 mm 0 mps 751 mmHg 86%
    23:00 -10°C° 0 mm 1 mps 751 mmHg 86%

    25 November, Monday

    Time Temperature Precipitation Wind Pressure Humidity
    00:00 -10°C° 0 mm 1 mps 751 mmHg 86%
    01:00 -10°C° 0 mm 1 mps 751 mmHg 86%
    02:00 -10°C° 0 mm 1 mps 751 mmHg 86%
    03:00 -12°C° 0 mm 2 mps 751 mmHg 87%
    04:00 -12°C° 0 mm 2 mps 751 mmHg 87%
    05:00 -12°C° 0 mm 2 mps 752 mmHg 88%
    06:00 -12°C° 0 mm 2 mps 752 mmHg 89%
    07:00 -13°C° 0 mm 2 mps 752 mmHg 90%
    08:00 -12°C° 0 mm 2 mps 752 mmHg 89%
    09:00 -10°C° 0 mm 2 mps 752 mmHg 88%
    10:00 -10°C° 0 mm 2 mps 752 mmHg 88%
    11:00 -9°C° 0 mm 2 mps 752 mmHg 87%
    12:00 -8°C° 0 mm 2 mps 752 mmHg 86%
    13:00 -8°C° 0 mm 2 mps 752 mmHg 85%
    14:00 -8°C° 0 mm 2 mps 752 mmHg 87%
    15:00 -9°C° 0 mm 2 mps 752 mmHg 88%
    16:00 -10°C° 0 mm 2 mps 752 mmHg 90%
    17:00 -10°C° 0 mm 2 mps 753 mmHg 90%
    18:00 -12°C° 0 mm 2 mps 753 mmHg 91%
    19:00 -12°C° 0 mm 2 mps 753 mmHg 91%
    20:00 -10°C° 0 mm 1 mps 753 mmHg 91%
    21:00 -10°C° 0 mm 1 mps 753 mmHg 91%
    22:00 -11°C° 0 mm 1 mps 753 mmHg 91%
    23:00 -11°C° 0 mm 1 mps 753 mmHg 91%

    26 November, Tuesday

    Time Temperature Precipitation Wind Pressure Humidity
    00:00 -11°C° 0 mm 0 mps 753 mmHg 91%
    01:00 -11°C° 0 mm 0 mps 753 mmHg 91%
    02:00 -11°C° 0 mm 0 mps 752 mmHg 91%
    03:00 -11°C° 0 mm 1 mps 752 mmHg 91%
    04:00 -11°C° 0 mm 1 mps 752 mmHg 91%
    05:00 -11°C° 0 mm 1 mps 752 mmHg 91%
    06:00 -11°C° 0 mm 1 mps 752 mmHg 91%
    07:00 -11°C° 0 mm 1 mps 752 mmHg 91%
    08:00 -12°C° 0 mm 2 mps 752 mmHg 91%
    09:00 -12°C° 0 mm 2 mps 752 mmHg 90%
    10:00 -10°C° 0 mm 2 mps 752 mmHg 90%
    11:00 -9°C° 0 mm 2 mps 752 mmHg 89%
    12:00 -9°C° 0 mm 3 mps 752 mmHg 88%
    13:00 -8°C° 0 mm 3 mps 752 mmHg 87%
    14:00 -9°C° 0 mm 3 mps 752 mmHg 88%
    15:00 -10°C° 0 mm 3 mps 752 mmHg 90%
    16:00 -10°C° 0 mm 3 mps 751 mmHg 91%
    17:00 -12°C° 0 mm 3 mps 752 mmHg 92%
    18:00 -12°C° 0 mm 3 mps 752 mmHg 92%
    19:00 -13°C° 0 mm 3 mps 752 mmHg 93%
    20:00 -13°C° 0 mm 3 mps 752 mmHg 92%
    21:00 -13°C° 0 mm 3 mps 751 mmHg 92%
    22:00 -14°C° 0 mm 4 mps 751 mmHg 92%
    23:00 -14°C° 0 mm 4 mps 751 mmHg 92%
    Show more